Location: Ahstedt
(52.2048°N, 10.1060°E)
Time: 05:05:48
(UTC+00:00)

Cosmos 1758 - Visible Passes

Search period start: 21 April 2026 00:00
Search period end: 01 May 2026 00:00
Orbit: 477 x 497 km, 82.5° (Epoch: 20 April)

Date Brightness Start Highest point End Pass type
(mag) Time Alt. Az. Time Alt. Az. Time Alt. Az.
21 Apr 4.7 02:48:54 10° N 02:52:20 37° ENE 02:55:44 10° SE visible
22 Apr 5.4 02:25:08 10° N 02:28:16 26° ENE 02:31:22 10° SE visible
23 Apr 6.0 02:01:30 10° NNE 02:04:09 19° ENE 02:06:47 10° ESE visible
24 Apr 6.2 01:38:04 10° NNE 01:39:58 14° ENE 01:41:53 10° E visible
24 Apr 3.0 03:11:56 10° NNW 03:15:34 64° W 03:19:08 10° S visible
25 Apr 3.1 02:47:54 10° N 02:51:35 83° E 02:55:12 10° SSE visible
26 Apr 3.8 02:23:56 10° N 02:27:32 54° ENE 02:31:05 10° SSE visible
27 Apr 4.6 02:00:03 10° N 02:03:27 36° ENE 02:06:49 10° SE visible
28 Apr 5.3 01:36:14 10° NNE 01:39:19 25° ENE 01:42:23 10° SE visible
28 Apr 4.0 03:11:16 10° NNW 03:14:27 29° W 03:17:37 10° SSW visible
29 Apr 5.8 01:12:32 10° NNE 01:15:08 18° ENE 01:17:42 10° ESE visible
29 Apr 3.4 02:47:01 10° NNW 02:50:30 43° W 02:53:56 10° SSW visible
30 Apr 6.0 00:49:06 10° NNE 00:50:54 13° ENE 00:52:41 10° E visible
30 Apr 3.0 02:22:51 10° NNW 02:26:29 67° W 02:30:04 10° S visible
